Regional Weather Roundup
Issued by NWS Boston, MA

Current Version | Previous Version | Text Only | Print | Product List | Glossary Off
Versions: 1 2 3 4 5 6 7 8 9 10 11 12 13 14 15 16 17 18 19 20 21 22 23 24 25 26 27 28

000
ASUS41 KBOX 120410
RWRBOX

REGIONAL WEATHER ROUNDUP
NATIONAL WEATHER SERVICE TAUNTON MA
1100 PM EST MON DEC 11 2017

NOTE:  "FAIR" INDICATES FEW OR NO CLOUDS BELOW 12,000 FEET WITH NO
SIGNIFICANT WEATHER AND/OR OBSTRUCTIONS TO VISIBILITY.

MAZALL-120500-
EASTERN MASSACHUSETTS

CITY           SKY/WX    TMP DP  RH WIND       PRES   REMARKS
BOSTON         CLOUDY    33  24  69 N6        30.01F WCI  28
BEVERLY        CLOUDY    29  21  72 CALM      30.00F
LAWRENCE       CLOUDY    32  21  64 NE5       30.01F WCI  27
BEDFORD        CLOUDY    27  22  81 CALM      29.99F
BLUE HILL        N/A     32  17  54 E6        29.96  WCI  26
NORWOOD        CLOUDY    29  26  89 CALM      30.00F
MARSHFIELD     CLOUDY    30  27  86 CALM      30.01F
PLYMOUTH       CLOUDY    30  25  81 E3        30.00F
TAUNTON        CLOUDY    28  27  96 CALM      30.00F
NEW BEDFORD    MOCLDY    28  28 100 CALM      30.00F
$$

MAZALL-120500-
CAPE COD AND THE ISLANDS

CITY           SKY/WX    TMP DP  RH WIND       PRES   REMARKS
FALMOUTH       MOCLDY    27  23  86 CALM      30.02S
HYANNIS        CLOUDY    27  23  85 CALM      29.99F
CHATHAM        CLEAR     29  25  85 CALM      30.02F
PROVINCETOWN   PTCLDY    30  25  81 MISG      30.01F
NANTUCKET      CLOUDY    33  28  81 NE3       30.01S
MARTHAS VNYRD  PTCLDY   N/A N/A N/A CALM      30.01S
$$

MAZALL-120500-
CENTRAL AND WESTERN MASSACHUSETTS

CITY           SKY/WX    TMP DP  RH WIND       PRES   REMARKS
WORCESTER      CLOUDY    29  16  58 SE6       29.94F WCI  23
FITCHBURG      CLOUDY    30  24  78 NW3       29.99F
ORANGE         CLOUDY    25  23  92 CALM      29.96F
SPRINGFIELD    CLOUDY    29  23  78 CALM      29.96F
WESTFIELD      CLOUDY    29  23  78 N3        29.97F
NORTH ADAMS    CLOUDY    28  18  66 VRB3      29.94F
PITTSFIELD     CLOUDY    27  19  72 CALM      29.90F
$$

RIZALL-120500-
RHODE ISLAND

CITY           SKY/WX    TMP DP  RH WIND       PRES   REMARKS
PROVIDENCE     CLOUDY    33  26  75 NW3       30.00F
NEWPORT        CLOUDY    34  22  61 E5        30.00S WCI  30
BLOCK ISLAND     N/A    N/A N/A N/A MISG        N/A
SMITHFIELD     CLOUDY    29  23  78 CALM      29.98F
WESTERLY       CLOUDY    32  26  78 N3        30.00F
$$

CTZALL-120500-
CONNECTICUT

CITY           SKY/WX    TMP DP  RH WIND       PRES   REMARKS
BRADLEY INTL   CLOUDY    30  23  75 CALM      29.98F
HARTFORD       CLOUDY    33  25  72 CALM      29.99S
BRIDGEPORT     CLOUDY    37  25  61 CALM      29.98F
DANBURY        CLOUDY    32  25  75 CALM      29.97F
GROTON         CLOUDY    33  25  72 N3        29.99F
NEW HAVEN      CLOUDY    35  25  66 CALM      29.98F
CHESTER        FAIR      32  21  64 MISG      29.97F
MERIDEN        CLOUDY    30  25  81 CALM      29.98F
WILLIMANTIC    CLOUDY    31  25  78 CALM      29.99F
OXFORD         CLOUDY    31  21  66 SE3       29.95F
$$

MEZ002-015-021-024-NHZ003-005-008-011-012-014-VTZ005-008-120500-
NORTHERN NEW ENGLAND

CITY           SKY/WX    TMP DP  RH WIND       PRES   REMARKS
PORTLAND ME    MOCLDY    26  16  65 VRB6      30.04S WCI  19
BANGOR ME      MOCLDY    15   8  73 N5        30.07R WCI   8
CONCORD NH     CLOUDY    26  21  81 CALM      30.00F
MANCHESTER NH  CLOUDY    30  20  66 CALM      29.98F
NASHUA NH      CLOUDY    28  24  85 CALM      30.00F
PORTSMOUTH NH  CLOUDY    30  18  60 NE3       29.99F
JAFFREY NH     CLOUDY    26  22  84 CALM      29.95F
KEENE NH       CLOUDY    26  22  84 CALM      29.97F
BURLINGTON VT  CLOUDY    17  10  74 CALM      29.97F
MT. WASHINGTON MOCLDY     3  -9  55 W22         N/A  WCI -19
$$

NYZ052-076-120500-
EASTERN NEW YORK

CITY           SKY/WX    TMP DP  RH WIND       PRES   REMARKS
ALBANY         CLOUDY    30  19  63 CALM      29.95F
NEW YORK CITY  CLOUDY    40  22  48 S5        29.96F
$$

ANZALL-120500-
MARINE OBSERVATIONS

STATION/POSITION TIME  TEMP    WIND        PRES    VSBY  WAVE
                       AIR SEA DIR/SP/G                  HT/PER
                 (UTC) (F)     (DEG/KT/KT) (MB)    (MI)  (FT/S)
BOSTON BUOY      0350   38 48   40/  4/  6 1015.2F         1/11
BUZZARDS BAY     0300   38      50/ 11/ 13 1016.5F
NANTUCKET SOUND  0350   38 44   50/  6/ 10 1016.2F         1
MASS BAY-STELLWA 0304   37 47  340/  4/  6 1016.4R         2/11
ISLE OF SHOALS   0300   34      30/  4/  5 1016.7R
S OF BLOCK IS    0343      53                N/A           4/10
$$

......................KEY.........................
  SKY/WX - SKY CONDITION/PRESENT WEATHER
  TMP    - TEMPERATURE IN FAHRENHEIT
  DWPT   - DEWPOINT IN FAHRENHEIT
  RH     - RELATIVE HUMIDITY IN PERCENT
  WIND   - DIRECTION AND SPEED IN MPH
  PRES   - MEAN SEA LEVEL PRESSURE IN INCHES OF HG
  WCI    - WIND CHILL INDEX
  VSB    - VISIBILITY IN MILES
  HX     - HEAT INDEX
  TC     - TEMPERATURE IN CELSIUS
  VRB    - VARIABLE WIND DIRECTION
  N/A    - NOT AVAILABLE




USA.gov is the U.S. government's official web portal to all federal, state and local government web resources and services.